Location: Molalla
(45.1473°N, 122.5770°W)
Time: 11:39:31
(UTC-08:00)

Vanguard 1 Rocket - All Passes

Search period start: 12 November 2019 00:00
Search period end: 22 November 2019 00:00
Orbit: 651 x 4225 km, 34.3° (Epoch: 11 November)

Date Brightness Start Highest point End Pass type
(mag) Time Alt. Az. Time Alt. Az. Time Alt. Az.
12 Nov - 04:06:46 10° SSE 04:08:22 11° SSE 04:10:06 10° SE visible
12 Nov - 06:27:10 10° SW 06:32:01 33° SSE 06:39:43 10° ESE visible
12 Nov - 08:50:24 10° WSW 08:57:06 36° S 09:08:51 10° SE daylight
12 Nov - 11:15:51 10° WSW 11:23:45 22° SSW 11:35:32 10° SSE daylight
13 Nov - 05:17:30 10° SW 05:21:24 24° SSE 05:26:43 10° ESE visible
13 Nov - 07:40:08 10° WSW 07:45:46 36° S 07:55:20 10° ESE daylight
13 Nov - 10:04:25 10° WSW 10:11:38 26° SSW 10:23:17 10° SSE daylight
13 Nov - 12:36:13 10° SW 12:38:53 11° SSW 12:41:49 10° SSW daylight
14 Nov - 04:08:24 10° S 04:10:57 15° SSE 04:13:51 10° ESE visible
14 Nov - 06:30:06 10° WSW 06:34:48 32° S 06:42:10 10° ESE visible
14 Nov - 08:53:39 10° WSW 08:59:55 30° SSW 09:10:22 10° SE daylight
14 Nov - 11:20:23 10° WSW 11:26:31 16° SSW 11:34:42 10° S daylight
15 Nov - 05:20:13 10° SW 05:24:08 26° SSE 05:29:28 10° ESE visible
15 Nov - 07:43:16 10° WSW 07:48:37 31° S 07:57:20 10° SE daylight
15 Nov - 10:08:13 10° WSW 10:14:28 20° SSW 10:23:42 10° SSE daylight
16 Nov - 04:10:37 10° SSW 04:13:39 18° SSE 04:17:06 10° ESE visible
16 Nov - 06:33:06 10° WSW 06:37:38 30° S 06:44:32 10° ESE visible
16 Nov - 08:57:06 10° WSW 09:02:47 24° SSW 09:11:37 10° SSE daylight
17 Nov - 03:02:08 10° S 03:03:08 11° SSE 03:04:09 10° SE visible
17 Nov - 05:23:03 10° SW 05:26:57 26° S 05:32:08 10° ESE visible
17 Nov - 07:46:31 10° WSW 07:51:29 26° S 07:59:10 10° SE daylight
17 Nov - 10:12:45 10° SW 10:17:19 14° SSW 10:23:15 10° S daylight
18 Nov - 04:13:07 10° SW 04:16:24 20° SSE 04:20:08 10° ESE visible
18 Nov - 06:36:13 10° WSW 06:40:31 27° S 06:46:48 10° SE visible
18 Nov - 09:00:55 10° WSW 09:05:41 18° SSW 09:12:24 10° SSE daylight
19 Nov - 03:03:28 10° SSW 03:05:52 14° SSE 03:08:17 10° SE visible
19 Nov - 05:26:00 10° SW 05:29:47 26° S 05:34:44 10° ESE visible
19 Nov - 07:49:58 10° WSW 07:54:23 21° SSW 08:00:44 10° SSE daylight
20 Nov - 04:15:47 10° SW 04:19:13 22° S 04:23:03 10° ESE visible
20 Nov - 06:39:26 10° WSW 06:43:24 23° S 06:48:54 10° SE visible
20 Nov - 09:05:37 10° SW 09:08:35 12° SSW 09:12:10 10° S daylight
21 Nov - 03:05:35 10° SSW 03:08:40 17° SSE 03:11:39 10° SE visible
21 Nov - 05:29:01 10° SW 05:32:39 23° S 05:37:13 10° SE visible
21 Nov - 07:53:48 10° SW 07:57:18 16° SSW 08:01:49 10° SSE daylight
